This is the latest recevied weather packets stored in our database for station/object KY0TEQ-13. If no packets are shown the sender has not sent any weather packets the latest 10 day(s).
| Time | Temp. | Humidity | Pressure | Rain* | Wind** | Luminosity | Snow |
|---|---|---|---|---|---|---|---|
| 1777877617 | 11.11° C | 44% | 1301.3 hPa | 0 mm | - | 0 W/m² | - |
| 1777877313 | 11.11° C | 43% | 1301.6 hPa | 0 mm | - | 0 W/m² | - |
| 1777877011 | 11.67° C | 42% | 1301.2 hPa | 0 mm | - | 0 W/m² | - |
| 1777876709 | 11.67° C | 40% | 1301.1 hPa | 0 mm | - | 0 W/m² | - |
| 1777876407 | 11.67° C | 39% | 1301 hPa | 0 mm | - | 0 W/m² | - |
| 1777876102 | 11.11° C | 40% | 1301 hPa | 0 mm | - | 0 W/m² | - |
| 1777875798 | 11.11° C | 41% | 1301 hPa | 0 mm | - | 0 W/m² | - |
| 1777875494 | 11.11° C | 41% | 1300.9 hPa | 0 mm | - | 0 W/m² | - |
| 1777875191 | 11.67° C | 40% | 1301 hPa | 0 mm | - | 0 W/m² | - |
| 1777874889 | 11.11° C | 41% | 1301.2 hPa | 0 mm | - | 0 W/m² | - |
| 1777874584 | 11.11° C | 42% | 1301.2 hPa | 0 mm | - | 0 W/m² | - |
| 1777874282 | 11.11° C | 41% | 1300.6 hPa | 0 mm | - | 0 W/m² | - |
| 1777873979 | 11.67° C | 41% | 1301.1 hPa | 0 mm | - | 0 W/m² | - |
| 1777873676 | 11.67° C | 40% | 1301.1 hPa | 0 mm | - | 0 W/m² | - |
| 1777873374 | 11.67° C | 40% | 1301.1 hPa | 0 mm | - | 0 W/m² | - |
| 1777873070 | 11.67° C | 40% | 1301.2 hPa | 0 mm | - | 0 W/m² | - |
| 1777872766 | 12.22° C | 39% | 1301.2 hPa | 0 mm | - | 0 W/m² | - |
| 1777872464 | 12.22° C | 38% | 1301.1 hPa | 0 mm | - | 0 W/m² | - |
| 1777872163 | 12.78° C | 37% | 1301.5 hPa | 0 mm | - | 0 W/m² | - |
| 1777871859 | 12.78° C | 37% | 1301.3 hPa | 0 mm | - | 0 W/m² | - |
| 1777871555 | 13.33° C | 37% | 1301.2 hPa | 0 mm | - | 0 W/m² | - |
| 1777871252 | 13.33° C | 36% | 1301.7 hPa | 0 mm | - | 0 W/m² | - |
| 1777870949 | 13.89° C | 34% | 1302 hPa | 0 mm | - | 0 W/m² | - |
| 1777870646 | 14.44° C | 31% | 1302 hPa | 0 mm | - | 0 W/m² | - |
| 1777870342 | 14.44° C | 30% | 1301.8 hPa | 0 mm | - | 0 W/m² | - |
* Rain latest hour (hover to see other rain measurements)
** Current wind speed in m/s (hover to see current wind gust speed)